Flag for Algeria Weather past 2 weeks in Constantine, Algeria

84 °F

Scattered clouds.

Feels Like: 82 °F
Forecast: 63 / 89 °F
Wind: 12 mph from West

Location: Constantine Airport

Current Time: Oct 4, 2015 at 2:06:43 PM

Latest Report: Oct 4, 2015 at 1:30 PM

Visibility: N/A

Pressure: 30.24 "Hg (28.39 "Hg at 557m altitude)

Humidity: 33%

Dew point: 52 °F

Location of ConstantineLocation

Historic Weather in Constantine — Graph


Constantine temperature yesterday

Maximum temperature yesterday: 81 °F (at 3:00 PM)
Minimum temperature yesterday: 52 °F (at 4:00 AM)
Average temperature yesterday: 67 °F

Past Weeks' High & Low Weather Summary

High86 °F (Sep 23, 2:00 PM)94% (Sep 21, 6:00 AM)30.27 "Hg (Sep 21, 6:00 AM)
Low48 °F (Sep 26, 6:00 AM)22% (Sep 23, 2:00 PM)29.92 "Hg (Sep 23, 2:00 PM)
Average65 °F67%30.12 "Hg
* Reported Sep 19 1:00 PM — Oct 4 1:00 PM, Constantine, Weather by CustomWeather, © 2015

Note: Actual official high and low records may vary slightly from our data, if they occured in-between our weather recording intervals... More about our weather records


Constantine weather history for previous 24 hours

Time TempWeatherWind HumidityBarometerVisibility
1:00 PM
Sun, Oct 4
84 °FScattered clouds.13 mph33%30.24 "HgN/A
12:30 PM82 °FScattered clouds.14 mph32%30.27 "HgN/A
12:00 PM82 °FScattered clouds.13 mph35%30.27 "HgN/A
11:30 AM81 °FScattered clouds.13 mph39%30.27 "HgN/A
11:00 AM81 °FScattered clouds.14 mph39%30.27 "HgN/A
10:30 AM79 °FScattered clouds.13 mph42%30.27 "HgN/A
10:00 AM77 °FScattered clouds.9 mph47%30.27 "HgN/A
9:30 AM75 °FScattered clouds.2 mph50%30.27 "HgN/A
9:00 AM73 °FScattered clouds.2 mph50%30.27 "HgN/A
8:30 AM70 °FScattered clouds.6 mph60%30.24 "HgN/A
8:00 AM66 °FScattered clouds.2 mph64%30.24 "HgN/A
7:30 AM64 °FScattered clouds.2 mph68%30.24 "HgN/A
7:00 AM63 °FScattered clouds.No wind68%30.24 "HgN/A
6:30 AM63 °FScattered clouds.No wind68%30.24 "HgN/A
6:00 AM63 °FPassing clouds.2 mph68%30.24 "HgN/A
5:00 AM63 °FPassing clouds.7 mph68%30.21 "HgN/A
4:00 AM63 °FPassing clouds.5 mph68%30.21 "HgN/A
3:30 AM63 °FPassing clouds.5 mph68%30.21 "HgN/A
3:00 AM63 °FPassing clouds.3 mph68%30.21 "HgN/A
2:30 AM64 °FPassing clouds.5 mph60%30.24 "HgN/A
2:00 AM64 °FPassing clouds.5 mph60%30.24 "HgN/A
1:30 AM66 °FPassing clouds.2 mph60%30.21 "HgN/A
1:00 AM66 °FPassing clouds.6 mph60%30.24 "HgN/A
12:30 AM66 °FPassing clouds.2 mph60%30.24 "HgN/A
12:00 AM66 °FPassing clouds.5 mph60%30.24 "HgN/A
11:30 PM
Sat, Oct 3
66 °FPassing clouds.13 mph60%30.24 "HgN/A
10:30 PM68 °FPassing clouds.13 mph60%30.21 "HgN/A
10:00 PM68 °FPassing clouds.12 mph56%30.21 "HgN/A
9:30 PM68 °FPassing clouds.9 mph53%30.21 "HgN/A
9:00 PM68 °FPassing clouds.10 mph53%30.21 "HgN/A
8:30 PM70 °FPassing clouds.13 mph50%30.21 "HgN/A
8:00 PM72 °FPassing clouds.14 mph44%30.18 "HgN/A
7:30 PM72 °FPassing clouds.10 mph47%30.18 "HgN/A
7:00 PM72 °FPassing clouds.9 mph44%30.18 "HgN/A
6:30 PM73 °FPassing clouds.12 mph41%30.18 "HgN/A
6:00 PM75 °FPartly sunny.9 mph36%30.18 "HgN/A
5:30 PM77 °FPartly sunny.14 mph34%30.15 "HgN/A
5:00 PM77 °FPartly sunny.9 mph34%30.15 "HgN/A
4:30 PM79 °FPartly sunny.9 mph34%30.15 "HgN/A
4:00 PM81 °FPartly sunny.9 mph32%30.15 "HgN/A
3:30 PM79 °FPartly sunny.9 mph32%30.15 "HgN/A
3:00 PM81 °FPartly sunny.9 mph30%30.15 "HgN/A
2:30 PM79 °FPartly sunny.9 mph32%30.15 "HgN/A
2:00 PM79 °FPartly sunny.7 mph32%30.15 "HgN/A
Weather by CustomWeather, © 2015

See weather overviewHow to use our weather pages